Back to catalog

LEMUR-2 SONNENBLUME

AliveWeatherSSO
NORAD 67367·PAYLOAD·🇺🇸 United States

Launched Jan 11, 2026 from Vandenberg Space Force Base

Loading…

Next Passes (next 24 hours)

TLE

FreshSource: Space-Track

Epoch: Sep 14, 2026, 06:04 UTC

1 67367U 26004E   26257.25281622  .00001884  00000-0  20756-3 0  9995
2 67367  97.8053 254.4383 0007197 198.7110 161.3844 14.88703592 36545

Track LEMUR-2 SONNENBLUME in real time with AllMySat

Download on the App Store